BNL304 LTFM-HLLB

Flight info

Callsign BNL304
Flight time 1h 50m
Altitude 37000
Route IVGUS1E/36 IVGUS UY226 BIG UG80 IMR/N0452F380 UR32 REDRA UP32 NEVIK DCT RASNO M1 REDFI REDFI1D
Aircraft A321/M-SDE3FGHIRWY/LB1

Departure

Time 2026-05-05 12:25
Airport İstanbul Airport (LTFM)

Arrival

Time 2026-05-05 14:16
Airport Benina International Airport (HLLB)
Time Latitude Longitude Altitude Speed Heading
2026-05-05 12:11 41.26360 28.74574 334 ft 0 kts 179°
2026-05-05 12:17 41.26376 28.74574 332 ft 4 kts 180°
2026-05-05 12:17 41.26403 28.74574 330 ft 4 kts 183°
2026-05-05 12:18 41.26429 28.74577 334 ft 4 kts 183°
2026-05-05 12:18 41.26456 28.74581 333 ft 4 kts 191°
2026-05-05 12:18 41.26482 28.74590 334 ft 3 kts 197°
2026-05-05 12:18 41.26486 28.74592 331 ft 0 kts 197°
2026-05-05 12:20 41.26466 28.74584 331 ft 10 kts 197°
2026-05-05 12:20 41.26445 28.74488 331 ft 15 kts 325°
2026-05-05 12:21 41.26547 28.74473 332 ft 16 kts 359°
2026-05-05 12:21 41.26660 28.74472 331 ft 17 kts 359°
2026-05-05 12:21 41.26784 28.74468 330 ft 19 kts 358°
2026-05-05 12:21 41.26918 28.74463 331 ft 20 kts
2026-05-05 12:22 41.26974 28.74593 332 ft 18 kts 89°
2026-05-05 12:22 41.26976 28.74770 331 ft 20 kts 89°
2026-05-05 12:22 41.26980 28.74959 331 ft 21 kts 89°
2026-05-05 12:22 41.26983 28.75160 333 ft 22 kts 88°
2026-05-05 12:23 41.26960 28.75357 334 ft 22 kts 141°
2026-05-05 12:23 41.26810 28.75378 332 ft 23 kts 179°
2026-05-05 12:23 41.26649 28.75381 333 ft 24 kts 179°
2026-05-05 12:23 41.26548 28.75383 334 ft 13 kts 178°
2026-05-05 12:24 41.26454 28.75388 334 ft 14 kts 178°
2026-05-05 12:24 41.26356 28.75415 334 ft 15 kts 134°
2026-05-05 12:24 41.26338 28.75549 332 ft 16 kts 89°
2026-05-05 12:24 41.26372 28.75658 331 ft 11 kts
2026-05-05 12:25 41.26636 28.75660 333 ft 77 kts 359°
2026-05-05 12:25 41.27415 28.75645 331 ft 144 kts 359°
2026-05-05 12:25 41.28533 28.75642 717 ft 165 kts
2026-05-05 12:25 41.29680 28.75659 1491 ft 165 kts 10°
2026-05-05 12:26 41.30660 28.76431 2201 ft 167 kts 40°
2026-05-05 12:26 41.31609 28.77491 2589 ft 188 kts 35°
2026-05-05 12:26 41.32778 28.78468 2885 ft 209 kts 30°
2026-05-05 12:26 41.34101 28.79509 3109 ft 233 kts 36°
2026-05-05 12:27 41.35133 28.81288 3498 ft 256 kts 70°
2026-05-05 12:27 41.35243 28.83661 4227 ft 265 kts 104°
2026-05-05 12:27 41.34291 28.85758 5029 ft 272 kts 139°
2026-05-05 12:27 41.32583 28.86809 5838 ft 277 kts 174°
2026-05-05 12:28 41.30675 28.86536 6652 ft 279 kts 197°
2026-05-05 12:28 41.28834 28.85669 7476 ft 282 kts 203°
2026-05-05 12:28 41.27027 28.84610 8291 ft 286 kts 205°
2026-05-05 12:28 41.25203 28.83501 9078 ft 290 kts 205°
2026-05-05 12:29 41.23345 28.82405 9853 ft 294 kts 204°
2026-05-05 12:29 41.21433 28.81321 10424 ft 308 kts 203°
2026-05-05 12:29 41.19372 28.80195 10652 ft 332 kts 202°
2026-05-05 12:29 41.17168 28.79025 11071 ft 347 kts 202°
2026-05-05 12:30 41.14938 28.77861 11756 ft 351 kts 202°
2026-05-05 12:30 41.12646 28.76679 12461 ft 355 kts 201°
2026-05-05 12:30 41.10299 28.75471 13177 ft 359 kts 201°
2026-05-05 12:30 41.07992 28.74287 13869 ft 363 kts 201°
2026-05-05 12:31 41.05628 28.73075 14553 ft 366 kts 201°
2026-05-05 12:31 41.03242 28.71849 15233 ft 370 kts 201°
2026-05-05 12:31 41.00831 28.70610 15913 ft 373 kts 201°
2026-05-05 12:31 40.98402 28.69358 16571 ft 376 kts 201°
2026-05-05 12:32 40.95978 28.68012 17202 ft 380 kts 208°
2026-05-05 12:32 40.93771 28.66068 17817 ft 383 kts 221°
2026-05-05 12:32 40.91940 28.63511 18418 ft 385 kts 234°
2026-05-05 12:32 40.90581 28.60465 19011 ft 387 kts 247°
2026-05-05 12:33 40.89761 28.57078 19590 ft 389 kts 259°
2026-05-05 12:33 40.89255 28.53550 20177 ft 392 kts 260°
2026-05-05 12:33 40.88744 28.50006 20755 ft 394 kts 260°
2026-05-05 12:33 40.88221 28.46434 21327 ft 397 kts 260°
2026-05-05 12:34 40.87687 28.42841 21888 ft 400 kts 260°
2026-05-05 12:34 40.87144 28.39221 22428 ft 403 kts 260°
2026-05-05 12:34 40.86599 28.35571 22945 ft 406 kts 260°
2026-05-05 12:34 40.86051 28.31905 23434 ft 409 kts 260°
2026-05-05 12:35 40.85498 28.28210 23918 ft 411 kts 260°
2026-05-05 12:35 40.84942 28.24495 24387 ft 414 kts 260°
2026-05-05 12:35 40.84381 28.20755 24837 ft 416 kts 259°
2026-05-05 12:35 40.83815 28.16997 25285 ft 419 kts 259°
2026-05-05 12:36 40.83245 28.13218 25710 ft 421 kts 260°
2026-05-05 12:36 40.82671 28.09409 26128 ft 424 kts 259°
2026-05-05 12:36 40.82092 28.05584 26547 ft 426 kts 259°
2026-05-05 12:36 40.81507 28.01742 26936 ft 428 kts 259°
2026-05-05 12:37 40.80916 27.97878 27321 ft 431 kts 259°
2026-05-05 12:37 40.80319 27.93994 27706 ft 433 kts 259°
2026-05-05 12:37 40.79735 27.90142 28075 ft 435 kts 261°
2026-05-05 12:37 40.79437 27.86172 28419 ft 436 kts 269°
2026-05-05 12:38 40.79263 27.82178 28762 ft 439 kts 261°
2026-05-05 12:38 40.78403 27.78304 29091 ft 443 kts 247°
2026-05-05 12:38 40.76893 27.74756 29411 ft 446 kts 235°
2026-05-05 12:38 40.74867 27.71642 29732 ft 450 kts 224°
2026-05-05 12:39 40.72414 27.69059 30056 ft 453 kts 213°
2026-05-05 12:39 40.69673 27.66979 30383 ft 456 kts 210°
2026-05-05 12:39 40.66889 27.64951 30703 ft 458 kts 210°
2026-05-05 12:39 40.64086 27.62932 31030 ft 460 kts 210°
2026-05-05 12:40 40.61273 27.60916 31458 ft 459 kts 209°
2026-05-05 12:40 40.58468 27.58909 31873 ft 459 kts 210°
2026-05-05 12:40 40.55665 27.56900 32269 ft 458 kts 210°
2026-05-05 12:40 40.52880 27.54859 32665 ft 458 kts 210°
2026-05-05 12:41 40.50115 27.52788 33055 ft 457 kts 211°
2026-05-05 12:41 40.47360 27.50701 33432 ft 457 kts 211°
2026-05-05 12:41 40.44609 27.48612 33798 ft 456 kts 211°
2026-05-05 12:41 40.41859 27.46537 34156 ft 456 kts 211°
2026-05-05 12:42 40.39139 27.44501 34504 ft 456 kts 211°
2026-05-05 12:42 40.36384 27.42450 34840 ft 456 kts 211°
2026-05-05 12:42 40.33626 27.40403 35167 ft 456 kts 211°
2026-05-05 12:42 40.30853 27.38386 35482 ft 456 kts 207°
2026-05-05 12:43 40.27914 27.36812 35799 ft 457 kts 198°
2026-05-05 12:43 40.24823 27.35858 36096 ft 458 kts 189°
2026-05-05 12:43 40.21662 27.35274 36371 ft 459 kts 189°
2026-05-05 12:43 40.18500 27.34690 36649 ft 459 kts 189°
2026-05-05 12:44 40.15341 27.34100 36960 ft 458 kts 189°
2026-05-05 12:44 40.12201 27.33508 37354 ft 454 kts 189°
2026-05-05 12:44 40.09075 27.32918 37689 ft 453 kts 189°
2026-05-05 12:44 40.05962 27.32335 37922 ft 453 kts 189°
2026-05-05 12:45 39.99719 27.31166 37999 ft 453 kts 189°
2026-05-05 12:45 39.93474 27.30005 37999 ft 454 kts 189°
2026-05-05 12:46 39.87220 27.28848 37997 ft 454 kts 189°
2026-05-05 12:46 39.80976 27.27695 37998 ft 454 kts 189°
2026-05-05 12:47 39.74724 27.26588 37989 ft 453 kts 189°
2026-05-05 12:47 39.68462 27.25546 37992 ft 454 kts 188°
2026-05-05 12:48 39.62196 27.24520 37994 ft 454 kts 188°
2026-05-05 12:48 39.55928 27.23477 37998 ft 454 kts 189°
2026-05-05 12:49 39.49654 27.22414 38003 ft 455 kts 189°
2026-05-05 12:49 39.43386 27.21289 38004 ft 455 kts 189°
2026-05-05 12:50 39.37125 27.20111 38006 ft 455 kts 189°
2026-05-05 12:50 39.30862 27.18941 38006 ft 455 kts 189°
2026-05-05 12:51 39.24592 27.17790 38007 ft 455 kts 189°
2026-05-05 12:51 39.18363 27.16655 38010 ft 455 kts 189°
2026-05-05 12:52 39.12086 27.15513 38014 ft 455 kts 189°
2026-05-05 12:52 39.05809 27.14365 38017 ft 456 kts 189°
2026-05-05 12:53 38.99531 27.13220 38017 ft 456 kts 189°
2026-05-05 12:53 38.93255 27.12058 38022 ft 456 kts 190°
2026-05-05 12:54 38.83849 27.10301 38023 ft 456 kts 190°
2026-05-05 12:55 38.77574 27.09128 38021 ft 456 kts 190°
2026-05-05 12:55 38.71298 27.07968 38019 ft 456 kts 190°
2026-05-05 12:56 38.65025 27.06813 38015 ft 455 kts 190°
2026-05-05 12:56 38.58756 27.05670 38011 ft 455 kts 190°
2026-05-05 12:57 38.52481 27.04527 38009 ft 456 kts 190°
2026-05-05 12:57 38.46204 27.03375 38011 ft 456 kts 190°
2026-05-05 12:58 38.39925 27.02218 38009 ft 456 kts 190°
2026-05-05 12:58 38.33855 27.00275 38004 ft 451 kts 206°
2026-05-05 12:59 38.28647 26.96002 38002 ft 444 kts 225°
2026-05-05 12:59 38.24503 26.90220 37998 ft 442 kts 231°
2026-05-05 13:00 38.19058 26.82353 37998 ft 443 kts 231°
2026-05-05 13:01 38.10887 26.70606 38005 ft 443 kts 231°
2026-05-05 13:01 38.06800 26.64745 38004 ft 444 kts 231°
2026-05-05 13:02 38.02741 26.58917 38006 ft 444 kts 231°
2026-05-05 13:02 37.98656 26.53057 38005 ft 443 kts 231°
2026-05-05 13:03 37.94767 26.47009 38004 ft 442 kts 236°
2026-05-05 13:03 37.91123 26.40753 38003 ft 441 kts 237°
2026-05-05 13:04 37.87485 26.34498 38007 ft 441 kts 236°
2026-05-05 13:04 37.83779 26.28301 38008 ft 441 kts 235°
2026-05-05 13:05 37.80045 26.22138 38010 ft 441 kts 235°
2026-05-05 13:05 37.76316 26.15974 38010 ft 441 kts 235°
2026-05-05 13:06 37.72595 26.09803 38010 ft 441 kts 235°
2026-05-05 13:06 37.68867 26.03642 38012 ft 441 kts 235°
2026-05-05 13:07 37.65162 25.97537 38020 ft 441 kts 235°
2026-05-05 13:07 37.61399 25.91366 38018 ft 441 kts 235°
2026-05-05 13:08 37.57689 25.85282 38020 ft 441 kts 235°
2026-05-05 13:08 37.53942 25.79159 38029 ft 441 kts 235°
2026-05-05 13:09 37.50187 25.73046 38026 ft 441 kts 235°
2026-05-05 13:09 37.46420 25.66939 38026 ft 441 kts 235°
2026-05-05 13:10 37.42669 25.60831 38026 ft 441 kts 235°
2026-05-05 13:10 37.38928 25.54709 38031 ft 441 kts 235°
2026-05-05 13:11 37.35180 25.48603 38035 ft 441 kts 235°
2026-05-05 13:11 37.31421 25.42509 38037 ft 441 kts 235°
2026-05-05 13:12 37.27666 25.36413 38038 ft 441 kts 235°
2026-05-05 13:12 37.23931 25.30307 38039 ft 441 kts 236°
2026-05-05 13:13 37.20216 25.24186 38040 ft 441 kts 236°
2026-05-05 13:13 37.16439 25.18121 38044 ft 441 kts 234°
2026-05-05 13:14 37.12592 25.12122 38048 ft 442 kts 234°
2026-05-05 13:14 37.08781 25.06088 38054 ft 442 kts 235°
2026-05-05 13:15 37.05013 25.00022 38056 ft 441 kts 235°
2026-05-05 13:15 37.01234 24.93960 38057 ft 442 kts 235°
2026-05-05 13:16 36.97443 24.87918 38058 ft 442 kts 235°
2026-05-05 13:16 36.93648 24.81879 38058 ft 441 kts 235°
2026-05-05 13:17 36.89862 24.75847 38057 ft 441 kts 235°
2026-05-05 13:17 36.86091 24.69858 38058 ft 441 kts 235°
2026-05-05 13:18 36.82288 24.63845 38054 ft 441 kts 235°
2026-05-05 13:18 36.78481 24.57842 38054 ft 441 kts 235°
2026-05-05 13:19 36.74673 24.51846 38056 ft 441 kts 235°
2026-05-05 13:19 36.70934 24.45794 38058 ft 440 kts 236°
2026-05-05 13:20 36.67274 24.39694 38058 ft 439 kts 237°
2026-05-05 13:20 36.63604 24.33608 38057 ft 439 kts 236°
2026-05-05 13:21 36.59906 24.27547 38059 ft 440 kts 236°
2026-05-05 13:21 36.56204 24.21493 38059 ft 440 kts 236°
2026-05-05 13:22 36.52503 24.15441 38058 ft 439 kts 236°
2026-05-05 13:22 36.48799 24.09403 38061 ft 439 kts 236°
2026-05-05 13:23 36.45098 24.03376 38066 ft 439 kts 236°
2026-05-05 13:23 36.41395 23.97351 38070 ft 439 kts 236°
2026-05-05 13:24 36.37677 23.91336 38073 ft 439 kts 236°
2026-05-05 13:24 36.33960 23.85332 38074 ft 438 kts 236°
2026-05-05 13:25 36.30246 23.79331 38077 ft 437 kts 236°
2026-05-05 13:25 36.26547 23.73342 38077 ft 438 kts 236°
2026-05-05 13:26 36.22835 23.67367 38078 ft 438 kts 236°
2026-05-05 13:26 36.19118 23.61399 38077 ft 438 kts 236°
2026-05-05 13:27 36.15398 23.55434 38080 ft 438 kts 236°
2026-05-05 13:27 36.11679 23.49471 38084 ft 438 kts 236°
2026-05-05 13:28 36.07972 23.43549 38087 ft 438 kts 236°
2026-05-05 13:28 36.04236 23.37600 38088 ft 438 kts 236°
2026-05-05 13:29 36.00504 23.31649 38098 ft 438 kts 236°
2026-05-05 13:29 35.96766 23.25712 38093 ft 438 kts 236°
2026-05-05 13:30 35.93023 23.19785 38095 ft 438 kts 236°
2026-05-05 13:30 35.89282 23.13861 38098 ft 438 kts 236°
2026-05-05 13:31 35.85541 23.07946 38100 ft 438 kts 235°
2026-05-05 13:31 35.81789 23.02024 38099 ft 438 kts 236°
2026-05-05 13:32 35.78035 22.96115 38101 ft 438 kts 236°
2026-05-05 13:32 35.74284 22.90205 38094 ft 438 kts 236°
2026-05-05 13:33 35.70530 22.84303 38097 ft 438 kts 235°
2026-05-05 13:33 35.66768 22.78409 38094 ft 438 kts 235°
2026-05-05 13:34 35.63003 22.72527 38093 ft 438 kts 235°
2026-05-05 13:34 35.59237 22.66650 38094 ft 437 kts 235°
2026-05-05 13:35 35.55473 22.60778 38096 ft 437 kts 235°
2026-05-05 13:35 35.51707 22.54916 38090 ft 437 kts 235°
2026-05-05 13:36 35.47935 22.49054 38093 ft 437 kts 235°
2026-05-05 13:36 35.44165 22.43200 38091 ft 437 kts 235°
2026-05-05 13:37 35.40398 22.37357 38087 ft 437 kts 235°
2026-05-05 13:37 35.36618 22.31523 38082 ft 437 kts 234°
2026-05-05 13:38 35.32835 22.25757 38082 ft 437 kts 234°
2026-05-05 13:38 35.29027 22.19963 38081 ft 437 kts 234°
2026-05-05 13:39 35.25223 22.14165 38078 ft 436 kts 234°
2026-05-05 13:39 35.21424 22.08379 38080 ft 437 kts 234°
2026-05-05 13:40 35.17609 22.02597 38088 ft 437 kts 234°
2026-05-05 13:40 35.13584 21.97034 38093 ft 440 kts 224°
2026-05-05 13:41 35.08389 21.93007 38082 ft 446 kts 210°
2026-05-05 13:41 35.02855 21.89581 38081 ft 446 kts 210°
2026-05-05 13:42 34.97335 21.86143 38085 ft 445 kts 211°
2026-05-05 13:42 34.91813 21.82706 38086 ft 445 kts 210°
2026-05-05 13:43 34.86299 21.79276 38080 ft 445 kts 210°
2026-05-05 13:43 34.80788 21.75839 38081 ft 445 kts 211°
2026-05-05 13:44 34.75279 21.72419 38077 ft 445 kts 210°
2026-05-05 13:44 34.69765 21.69010 38076 ft 444 kts 210°
2026-05-05 13:45 34.64256 21.65616 38069 ft 443 kts 210°
2026-05-05 13:45 34.58795 21.62250 38066 ft 443 kts 210°
2026-05-05 13:46 34.53303 21.58870 38064 ft 443 kts 210°
2026-05-05 13:46 34.47810 21.55495 38059 ft 443 kts 210°
2026-05-05 13:47 34.42320 21.52110 38055 ft 443 kts 210°
2026-05-05 13:47 34.36821 21.48744 38055 ft 443 kts 210°
2026-05-05 13:48 34.31300 21.45397 38054 ft 444 kts 209°
2026-05-05 13:48 34.26654 21.42747 38053 ft 445 kts 208°
2026-05-05 13:49 34.21031 21.39642 38052 ft 445 kts 208°
2026-05-05 13:49 34.15415 21.36510 38047 ft 444 kts 208°
2026-05-05 13:50 34.09820 21.33352 38041 ft 444 kts 208°
2026-05-05 13:50 34.04230 21.30197 38039 ft 444 kts 208°
2026-05-05 13:51 33.98636 21.27055 38034 ft 444 kts 208°
2026-05-05 13:51 33.93043 21.23912 38032 ft 443 kts 208°
2026-05-05 13:52 33.87447 21.20777 38030 ft 443 kts 208°
2026-05-05 13:52 33.81858 21.17654 38023 ft 443 kts 208°
2026-05-05 13:53 33.76270 21.14543 38019 ft 442 kts 208°
2026-05-05 13:53 33.70695 21.11431 38015 ft 442 kts 208°
2026-05-05 13:54 33.65155 21.08349 38011 ft 442 kts 208°
2026-05-05 13:54 33.59574 21.05248 38007 ft 442 kts 208°
2026-05-05 13:55 33.54000 21.02140 38002 ft 442 kts 208°
2026-05-05 13:55 33.48427 20.99051 37999 ft 442 kts 208°
2026-05-05 13:56 33.42849 20.95975 37996 ft 441 kts 208°
2026-05-05 13:56 33.37273 20.92895 37990 ft 441 kts 208°
2026-05-05 13:57 33.31706 20.89816 37985 ft 441 kts 208°
2026-05-05 13:57 33.26117 20.86744 37283 ft 446 kts 208°
2026-05-05 13:58 33.23300 20.85202 36776 ft 444 kts 208°
2026-05-05 13:58 33.20491 20.83669 36234 ft 443 kts 208°
2026-05-05 13:58 33.17684 20.82136 35553 ft 445 kts 208°
2026-05-05 13:58 33.14859 20.80592 34822 ft 449 kts 207°
2026-05-05 13:59 33.09117 20.77461 33179 ft 458 kts 207°
2026-05-05 13:59 33.06234 20.75891 32709 ft 453 kts 207°
2026-05-05 14:00 33.00529 20.72785 31603 ft 447 kts 207°
2026-05-05 14:00 32.97707 20.71253 31070 ft 444 kts 207°
2026-05-05 14:00 32.94913 20.69733 30509 ft 441 kts 207°
2026-05-05 14:00 32.92133 20.68221 29975 ft 437 kts 207°
2026-05-05 14:01 32.89383 20.66727 29439 ft 433 kts 207°
2026-05-05 14:01 32.86651 20.65243 28908 ft 429 kts 207°
2026-05-05 14:01 32.83942 20.63777 28382 ft 426 kts 207°
2026-05-05 14:01 32.81254 20.62324 27862 ft 422 kts 207°
2026-05-05 14:02 32.78592 20.60885 27348 ft 419 kts 207°
2026-05-05 14:02 32.75953 20.59458 26846 ft 415 kts 207°
2026-05-05 14:02 32.73337 20.58042 26344 ft 411 kts 207°
2026-05-05 14:02 32.70743 20.56638 25869 ft 408 kts 207°
2026-05-05 14:03 32.68172 20.55249 25397 ft 405 kts 207°
2026-05-05 14:03 32.65614 20.53867 24940 ft 402 kts 207°
2026-05-05 14:03 32.63079 20.52499 24486 ft 399 kts 207°
2026-05-05 14:03 32.60559 20.51139 24043 ft 397 kts 207°
2026-05-05 14:04 32.58056 20.49791 23600 ft 393 kts 207°
2026-05-05 14:04 32.55574 20.48453 23156 ft 391 kts 207°
2026-05-05 14:04 32.53108 20.47128 22712 ft 387 kts 207°
2026-05-05 14:04 32.50668 20.45818 22273 ft 384 kts 207°
2026-05-05 14:05 32.48245 20.44514 21812 ft 381 kts 207°
2026-05-05 14:05 32.45841 20.43221 21364 ft 378 kts 207°
2026-05-05 14:05 32.43459 20.41944 20896 ft 375 kts 206°
2026-05-05 14:05 32.41094 20.40678 20435 ft 371 kts 206°
2026-05-05 14:06 32.38752 20.39422 19963 ft 368 kts 206°
2026-05-05 14:06 32.36414 20.38171 19482 ft 369 kts 206°
2026-05-05 14:06 32.34026 20.37148 18245 ft 369 kts 190°
2026-05-05 14:06 32.31453 20.37307 16857 ft 376 kts 163°
2026-05-05 14:07 32.29207 20.38743 15631 ft 374 kts 138°
2026-05-05 14:07 32.27413 20.40940 14445 ft 369 kts 132°
2026-05-05 14:07 32.25699 20.43069 14013 ft 344 kts 135°
2026-05-05 14:07 32.23964 20.44886 13455 ft 327 kts 143°
2026-05-05 14:08 32.22087 20.46342 12706 ft 320 kts 152°
2026-05-05 14:08 32.20091 20.47449 11906 ft 314 kts 160°
2026-05-05 14:08 32.18030 20.48252 11082 ft 309 kts 166°
2026-05-05 14:08 32.15946 20.48787 10271 ft 305 kts 172°
2026-05-05 14:09 32.13855 20.49072 9478 ft 300 kts 177°
2026-05-05 14:09 32.11783 20.49110 8694 ft 295 kts 182°
2026-05-05 14:09 32.09752 20.48906 7913 ft 291 kts 188°
2026-05-05 14:09 32.07781 20.48471 7141 ft 286 kts 194°
2026-05-05 14:10 32.05884 20.47815 6405 ft 281 kts 200°
2026-05-05 14:10 32.04110 20.46965 5923 ft 268 kts 205°
2026-05-05 14:10 32.02465 20.45970 5549 ft 266 kts 210°
2026-05-05 14:10 32.00901 20.44804 5181 ft 266 kts 216°
2026-05-05 14:11 31.99443 20.43468 4835 ft 265 kts 221°
2026-05-05 14:11 31.98102 20.41992 4461 ft 263 kts 226°
2026-05-05 14:11 31.96900 20.40413 4104 ft 262 kts 231°
2026-05-05 14:11 31.95811 20.38707 3748 ft 256 kts 236°
2026-05-05 14:12 31.95130 20.36848 3376 ft 243 kts 265°
2026-05-05 14:12 31.95514 20.35015 3082 ft 228 kts 306°
2026-05-05 14:12 31.96722 20.33997 2933 ft 206 kts 340°
2026-05-05 14:12 31.97995 20.33571 2889 ft 175 kts 345°
2026-05-05 14:13 31.99126 20.33192 2775 ft 165 kts 342°
2026-05-05 14:13 32.00183 20.32781 2529 ft 156 kts 341°
2026-05-05 14:13 32.01164 20.32390 2361 ft 146 kts 341°
2026-05-05 14:13 32.02101 20.31999 2150 ft 141 kts 339°
2026-05-05 14:14 32.02996 20.31544 1945 ft 139 kts 335°
2026-05-05 14:14 32.03848 20.31035 1740 ft 137 kts 332°
2026-05-05 14:14 32.04674 20.30486 1508 ft 137 kts 331°
2026-05-05 14:14 32.05499 20.29944 1153 ft 135 kts 332°
2026-05-05 14:15 32.06310 20.29402 942 ft 134 kts 331°
2026-05-05 14:15 32.07124 20.28867 748 ft 134 kts 330°
2026-05-05 14:15 32.07932 20.28312 566 ft 134 kts 331°
2026-05-05 14:15 32.08742 20.27775 424 ft 127 kts 331°
2026-05-05 14:16 32.09392 20.27339 414 ft 75 kts 330°
2026-05-05 14:16 32.09658 20.27158 416 ft 35 kts 329°
2026-05-05 14:16 32.09865 20.27017 411 ft 34 kts 330°
2026-05-05 14:16 32.10069 20.26879 413 ft 34 kts 330°
2026-05-05 14:17 32.10273 20.26744 409 ft 34 kts 330°
2026-05-05 14:17 32.10401 20.26567 413 ft 24 kts 292°
2026-05-05 14:17 32.10439 20.26369 413 ft 25 kts 281°
2026-05-05 14:17 32.10432 20.26159 413 ft 26 kts 256°
2026-05-05 14:18 32.10292 20.26046 413 ft 27 kts 174°
2026-05-05 14:18 32.10121 20.26149 412 ft 29 kts 149°
2026-05-05 14:18 32.09955 20.26260 414 ft 27 kts 150°
2026-05-05 14:18 32.09789 20.26371 413 ft 28 kts 149°
2026-05-05 14:19 32.09618 20.26487 415 ft 28 kts 150°
2026-05-05 14:19 32.09450 20.26600 414 ft 24 kts 150°
2026-05-05 14:19 32.09299 20.26702 413 ft 24 kts 150°
2026-05-05 14:19 32.09146 20.26804 412 ft 26 kts 150°
2026-05-05 14:20 32.08987 20.26912 411 ft 27 kts 150°
2026-05-05 14:20 32.08824 20.27004 414 ft 25 kts 177°
2026-05-05 14:20 32.08736 20.26952 411 ft 14 kts 248°
2026-05-05 14:20 32.08720 20.26838 412 ft 13 kts 243°
2026-05-05 14:21 32.08688 20.26757 414 ft 12 kts 218°
2026-05-05 14:21 32.08673 20.26746 414 ft 0 kts 210°